Location: Cuiry
(49.3858°N, 3.7708°E)
Time: 14:19:49
(UTC+00:00)

NOSS 2-3 (D) - Pass Details

Date: 12 January 2026
Orbit: 497 x 1701 km, 63.3° (Epoch: 24 April)

Event Time Altitude Azimuth Distance (km) Brightness Sun altitude
Rises 17:30:28 0° 317° (NW) 2,992 7.4 -12.6°
Reaches altitude 10° 17:32:30 10° 317° (NW) 2,194 6.7 -12.9°
Maximum altitude 17:37:32 90° 235° (SW) 870 4.2 -13.7°
Drops below altitude 10° 17:44:20 10° 140° (SE) 2,936 6.8 -14.8°
Sets 17:47:25 0° 140° (SE) 4,083 7.5 -15.3°
